Weather History for North Myrtle Beach, SC

Change the Weather History Date:

Friday, April 18, 2014

  Actual Average Record
Temperature  
Mean Temperature 59 °F 62 °F  
Max Temperature 68 °F 72 °F 82 °F (2002)
Min Temperature 50 °F 53 °F 35 °F (2001)
Degree Days  
Heating Degree Days 6 4  
Month to date heating degree days 74 105  
Since 1 July heating degree days 2546 2387  
Cooling Degree Days 0 1  
Month to date cooling degree days 15 14  
Year to date cooling degree days 15 17  
Growing Degree Days 8 (Base 50)    
Moisture  
Dew Point 48 °F    
Average Humidity 76    
Maximum Humidity 93    
Minimum Humidity 58    
Precipitation  
Precipitation 0.72 in 0.09 in 0.72 in (2014)
Month to date precipitation 1.35 1.84  
Year to date precipitation 10.21 12.87  
Sea Level Pressure  
Sea Level Pressure 30.26 in    
Wind  
Wind Speed 12 mph (NNE)    
Max Wind Speed 23 mph    
Max Gust Speed 33 mph    
Visibility 8 miles    
Events Rain    
T = Trace of Precipitation, MM = Missing Value Source: NWS Daily Summary

Daily Weather History Graph

Daily Weather History Graph

Search for Another Location

Airport:

Trip Planner

Search our weather history database for the weather conditions in past years. The results will help you decide how hot, cold, wet, or windy it might be!

Date:

Astronomy

Apr. 18, 2014 Rise Set
Actual Time 6:40 AM EDT 7:48 PM EDT
Civil Twilight 6:14 AM EDT 8:14 PM EDT
Nautical Twilight 5:44 AM EDT 8:44 PM EDT
Astronomical Twilight 5:12 AM EDT 9:16 PM EDT
Moon 11:25 PM EDT (4/18) 9:07 AM EDT (4/18)
Length of Visible Light 13h 59m
Length of Day
13h 07m
Waning Gibbous, 87% of the Moon is Illuminated
Apr 18
Waning Gibbous
Apr 22
Last Quarter
Apr 29
New
May 6
First Quarter
May 14
Full

Hourly Weather History & Observations

Time (EDT) Temp. Dew Point Humidity Pressure Visibility Wind Dir Wind Speed Gust Speed Precip Events Conditions
12:53 AM 54.0 °F 46.0 °F 75% 30.37 in 10.0 mi NE 10.4 mph - N/A   Scattered Clouds
1:53 AM 52.0 °F 44.1 °F 74% 30.36 in 10.0 mi NE 11.5 mph - N/A   Partly Cloudy
2:53 AM 51.1 °F 42.1 °F 71% 30.34 in 10.0 mi NE 13.8 mph - N/A   Overcast
3:53 AM 51.1 °F 41.0 °F 68% 30.35 in 10.0 mi NNE 10.4 mph - N/A   Overcast
4:53 AM 50.0 °F 41.0 °F 71% 30.33 in 10.0 mi NNE 11.5 mph - N/A   Overcast
5:53 AM 50.0 °F 39.9 °F 68% 30.32 in 10.0 mi NNE 12.7 mph - N/A   Overcast
6:53 AM 50.0 °F 39.9 °F 68% 30.32 in 10.0 mi NNE 12.7 mph - N/A   Overcast
7:53 AM 50.0 °F 41.0 °F 71% 30.33 in 10.0 mi NNE 9.2 mph - N/A   Mostly Cloudy
8:53 AM 53.1 °F 42.1 °F 66% 30.34 in 10.0 mi NNE 11.5 mph - N/A   Overcast
9:53 AM 55.9 °F 42.1 °F 60% 30.34 in 10.0 mi NE 11.5 mph - N/A   Overcast
10:12 AM 55.0 °F 43.0 °F 64% 30.34 in 10.0 mi NE 9.2 mph - N/A   Overcast
10:53 AM 54.0 °F 46.0 °F 75% 30.35 in 2.0 mi NNE 11.5 mph - 0.00 in Rain Light Rain
11:22 AM 53.1 °F 48.0 °F 83% 30.33 in 2.0 mi NNE 9.2 mph - 0.00 in Rain Light Rain
11:35 AM 55.0 °F 48.9 °F 80% 30.34 in 7.0 mi North 10.4 mph - 0.00 in   Overcast
11:53 AM 57.0 °F 48.0 °F 72% 30.34 in 7.0 mi NNE 9.2 mph - 0.00 in   Overcast
1:28 PM 63.0 °F 50.0 °F 63% 30.28 in 10.0 mi NE 11.5 mph - 0.00 in   Overcast
1:51 PM 62.6 °F 50.0 °F 63% 30.27 in 10.0 mi NE 12.7 mph - 0.00 in   Overcast
1:53 PM 63.0 °F 50.0 °F 63% 30.27 in 10.0 mi NE 12.7 mph - 0.00 in   Overcast
2:43 PM 66.9 °F 51.1 °F 57% 30.23 in 10.0 mi NE 16.1 mph - N/A   Mostly Cloudy
2:53 PM 66.0 °F 51.1 °F 59% 30.24 in 10.0 mi NE 16.1 mph - N/A   Overcast
3:53 PM 66.0 °F 52.0 °F 60% 30.20 in 10.0 mi NE 16.1 mph - 0.00 in   Overcast
4:53 PM 64.0 °F 51.1 °F 63% 30.20 in 10.0 mi ENE 12.7 mph - N/A   Overcast
5:53 PM 62.1 °F 52.0 °F 70% 30.18 in 10.0 mi NE 12.7 mph - N/A   Overcast
6:53 PM 59.0 °F 55.0 °F 87% 30.17 in 10.0 mi NNE 10.4 mph - 0.00 in Rain Light Rain
7:32 PM 57.0 °F 54.0 °F 89% 30.19 in 1.8 mi North 5.8 mph - 0.11 in Rain Heavy Rain
7:43 PM 57.0 °F 55.0 °F 93% 30.19 in 2.5 mi North 6.9 mph - 0.17 in Rain Heavy Rain
7:50 PM 57.2 °F 55.4 °F 94% 30.19 in 4.0 mi North 8.1 mph - 0.19 in Rain Rain
8:40 PM 57.0 °F 54.0 °F 89% 30.18 in 4.0 mi NE 12.7 mph - 0.09 in Rain Rain
8:53 PM 55.9 °F 54.0 °F 93% 30.17 in 3.0 mi NE 16.1 mph - 0.12 in Rain Rain
9:06 PM 55.9 °F 54.0 °F 93% 30.16 in 3.0 mi NE 17.3 mph - 0.04 in Rain Rain
9:53 PM 55.9 °F 54.0 °F 93% 30.14 in 6.0 mi NE 16.1 mph - 0.11 in Rain Light Rain
11:53 PM 55.0 °F 53.1 °F 93% 30.10 in 7.0 mi NE 16.1 mph 25.3 mph 0.12 in Rain Light Rain